www.pogodaiklimat.ru

Погода и климат >> Архив погоды >> Франция >> Ле-Бурже


ПОГОДА в Ле-Бурже

  • Прогноз погоды в Ле-Бурже
  • Монитор погоды в Ле-Бурже

АРХИВ ПОГОДЫ в Ле-Бурже

Время (UTC), дата Ветер
(напр.,м/с)
 
Видим.   Явления Облачность Т
(С)
Тd
(С)
f
(%)
Тe
(С)
Тes
(С)
Комфортность P
(гПа)
Po
(гПа)
Тmin
(С)
Tmax
(С)
R
(мм)
R24
(мм)
S
(см)
10 12.06 Ю 2 17 км 10/6 840 м
[]
+15.5 +8.7 64 +15 +19 1010.0 1004.2
11 12.06 Ю 3 45 км 10/6 930 м
[]
+15.4 +8.2 62 +15 +18 1009.7 1003.9
12 12.06 Ю 3
{8}
50 км 10/10 600 м
[]
+15.7 +8.4 62 +15 +15 1009.5 1003.7 0
13 12.06 ЮВ 3 9000 м дождь 8/6 800 м
[]
+14.6 +9.8 73 +14 +18 1009.6 1003.8 1
14 12.06 ЮВ 2 40 км н/о +15.3 +10.7 74 +15 +15 1009.4 1003.6 1
15 12.06 Ю 2
{8}
60 км 9/9 600 м
[]
+17.4 +10.7 65 +18 +21 1008.9 1003.1 3 0
16 12.06 ЮВ 3 10 км 9/9 1500 м
[]
+14.2 +11.4 83 +13 +14 1009.1 1003.3 0.6
17 12.06 Ю 3 2500 м дождь 9/8 500 м
[]
+14.1 +11.3 83 +13 +14 1009.3 1003.5 1
18 12.06 Ю 2
{9}
35 км 9/9 600 м
[]
+14.3 +11.8 85 +14 +14 1009.2 1003.4 +10.6 +17.6 3 0
19 12.06 Ю 3 55 км н/о +14.7 +10.3 75 +14 +14 1009.2 1003.4
20 12.06 Ю 2 60 км 9/4 800 м
[]
+13.9 +11.2 84 +14 +14 1009.8 1004.0 2
21 12.06 Ю 4-6
{6}
60 км н/о +13.6 +9.8 78 +12 +12 1010.4 1004.6 2 0
22 12.06 ЮЗ 2 60 км 9/5 700 м
[]
+12.8 +10.0 83 +12 +12 1010.9 1005.0
23 12.06 Ю 3 60 км н/о +12.7 +9.9 83 +11 +11 1011.0 1005.1
00 13.06 Ю 5-4
{9}
60 км н/о +12.4 +9.4 82 +10 +10 1011.3 1005.4 0
01 13.06 Ю 3-4
{4}
60 км н/о +11.8 +8.8 82 +10 +10 1011.3 1005.4
02 13.06 Ю 2-4
{5}
55 км н/о +11.5 +8.9 84 +10 +10 1011.5 1005.6
03 13.06 Ю 2
{7}
35 км н/о +10.9 +9.0 88 +10 +10 1011.6 1005.7 0
04 13.06 Ю 2 28 км 10/9 300 м
[]
+10.9 +9.5 91 +10 +10 1011.9 1006.0
05 13.06 Ю 3-4
{4}
30 км 9/9 330 м
[]
+11.3 +9.2 87 +10 +10 1012.0 1006.1
06 13.06 Ю 2
{9}
35 км 10/10 300 м
[]
+12.0 +9.7 86 +11 +11 1012.2 1006.3 +10.7 +15.3 0
07 13.06 Ю 2 35 км 10/8 450 м
[]
+13.0 +10.0 82 +12 +13 1012.2 1006.3
08 13.06 Ю 3 35 км 10/9 500 м
[]
+13.8 +10.0 78 +13 +13 1012.3 1006.4 0.0
09 13.06 Ю 3
{10}
35 км 10/10 600 м
[]
+14.5 +9.9 74 +14 +14 1012.3 1006.5 0.0 0
10 13.06 Ю 3 35 км 10/9 800 м
[]
+15.5 +10.0 70 +15 +16 1012.3 1006.5
11 13.06 Ю 5 35 км 10/9 1000 м
[]
+16.7 +9.6 63 +16 +17 1012.1 1006.3
12 13.06 ЮЗ 4
{15}
45 км 9/9 1000 м
[]
+17.9 +9.5 58 +18 +21 1012.1 1006.3 0
13 13.06 Ю 4 30 км 9/1 1230 м
[]
+18.9 +9.7 55 +20 +26 1012.0 1006.2
14 13.06 Ю 4 9000 м слаб. дождь 10/8 800 м
[]
+16.6 +11.5 72 +16 +17 1011.9 1006.1 0.2
15 13.06 Ю 3
{10}
9000 м 9/9 1000 м
[]
+19.1 +10.4 57 +20 +25 1011.1 1005.4 0.2 0
16 13.06 ЮЗ 3 15 км 9/5 1320 м
[]
+19.8 +11.0 57 +21 +23 комфорт 1011.1 1005.4
17 13.06 Ю 3 19 км 9/6 1200 м
[]
+19.5 +12.3 63 +21 +22 комфорт 1011.0 1005.3
18 13.06 Ю 3
{10}
45 км 8/8 1000 м
[]
+19.2 +11.2 60 +20 +21 1011.2 1005.5 +12.0 +20.8 0
19 13.06 Ю 3-4
{6}
40 км н/о +18.8 +11.4 62 +20 +20 1011.7 1006.0
20 13.06 Ю 2-4
{4}
60 км н/о +18.1 +10.9 63 +19 +19 1012.0 1006.2
21 13.06 Ю 2-2
{4}
50 км н/о +16.7 +10.8 68 +17 +17 1012.5 1006.7 0
22 13.06 ЮВ 1-1
{2}
40 км н/о +14.8 +10.6 76 +15 +15 1012.6 1006.8
23 13.06 ЮВ 1-1
{1}
30 км н/о +13.9 +10.7 81 +15 +15 1012.7 1006.8
00 14.06 С 1-1
{1}
19 км 10/0
[]
+13.3 +11.0 86 +13 +13 1012.5 1006.6 0
01 14.06 С 1 20 км 10/10
[]
+13.2 +11.1 87 +14 +14 1012.5 1006.6
02 14.06 СВ 1 19 км 10/10 1500 м
[]
+13.1 +11.2 88 +14 +14 1012.5 1006.6
03 14.06 ЮВ 2
{6}
40 км 10/10 1000 м
[]
+14.3 +11.8 85 +14 +14 1013.2 1007.4 0
04 14.06 Ю 2 45 км 10/3 1000 м
[]
+14.6 +11.6 82 +14 +14 1013.3 1007.5
05 14.06 Ю 2-2
{3}
40 км 10/10
[]
+14.3 +11.6 84 +14 +14 1012.7 1006.9
06 14.06 Ю 1
{4}
29 км н/о +15.3 +12.1 81 +16 +16 1013.0 1007.2 +12.9 +19.7 0
07 14.06 З 2-4
{4}
35 км н/о +16.3 +9.5 64 +16 +16 1013.7 1007.9
08 14.06 Ю 1-2
{3}
30 км н/о +17.4 +9.0 58 +18 +18 1014.1 1008.3
09 14.06 Ю 1-3
{3}
40 км н/о +18.9 +9.9 56 +21 +21 комфорт 1014.4 1008.6 0
10 14.06 ЮЗ 2 35 км 10/10 1320 м
[]
+19.8 +9.9 53 +22 +22 комфорт 1014.6 1008.9
11 14.06 Ю 3 40 км 10/3 1200 м
[]
+20.0 +11.5 58 +22 +28 комфорт 1014.4 1008.7
12 14.06 Ю 2
{12}
40 км 9/9 1000 м
[]
+21.0 +12.2 57 +24 +33 комфорт 1014.0 1008.3 0
13 14.06 Ю 3 55 км н/о +22.0 +12.0 53 +24 +24 комфорт 1013.3 1007.6
14 14.06 Ю 2 40 км 8/5 1410 м
[]
+22.7 +11.7 50 +25 +30 комфорт 1012.5 1006.8
15 14.06 Ю 2
{8}
55 км 8/8 1500 м
[]
+23.3 +11.7 48 +26 +28 жарко 1012.0 1006.3 0
16 14.06 Ю 1 45 км 8/8 1500 м
[]
+24.3 +11.6 45 +26 +28 жарко 1011.4 1005.8
17 14.06 Ю 1-2
{3}
55 км 10/10 1500 м
[]
+22.7 +11.7 50 +25 +25 комфорт 1011.5 1005.8
18 14.06 ЮВ 1
{5}
55 км 9/9 1500 м
[]
+22.3 +12.0 52 +25 +25 комфорт 1011.4 1005.7 +15.4 +24.6 0
19 14.06 Ю 1 60 км 10/10 2000 м
[]
+21.9 +11.6 52 +24 +24 комфорт 1011.6 1005.9
20 14.06 СЗ 1 50 км 10/10 1500 м
[]
+21.2 +11.8 55 +23 +23 комфорт 1011.5 1005.8
21 14.06 СЗ 1-2
{3}
55 км 10/10 1500 м
[]
+20.2 +11.4 57 +23 +23 комфорт 1011.5 1005.8 0
22 14.06 СВ 1 60 км 10/10 1500 м
[]
+19.4 +12.4 64 +22 +22 комфорт 1011.4 1005.7
23 14.06 СВ 1 20 км слаб. дождь 10/8 1260 м
[]
+18.0 +13.5 75 +20 +20 1011.9 1006.1 1
00 15.06 ЮЗ 2
{6}
2300 м слаб. дождь 10/10 600 м
[]
+16.2 +13.3 83 +17 +17 1012.5 1006.7 3 0
01 15.06 Ю 1 26 км 10/10 2000 м
[]
+16.1 +14.5 90 +17 +17 1012.3 1006.5 0.6
02 15.06 Ю 2 17 км слаб. дождь 10/1 1320 м
[]
+16.2 +14.7 91 +16 +16 1012.6 1006.8 0.2
03 15.06 Ю 1
{4}
17 км 10/10 1000 м
[]
+15.8 +14.5 92 +16 +16 1012.9 1007.1 1 0
04 15.06 ЮЗ 1-2
{2}
19 км н/о +14.7 +12.9 89 +15 +15 1013.4 1007.6
05 15.06 ЮЗ 1-2
{2}
24 км н/о +14.5 +12.5 88 +16 +16 1013.7 1007.9
06 15.06 ЮЗ 2
{6}
30 км н/о +15.1 +11.9 81 +15 +15 1014.3 1008.5 +14.1 +22.3 0
07 15.06 ЮЗ 2-4
{4}
35 км н/о +17.0 +11.3 69 +17 +17 1014.9 1009.1
08 15.06 ЮЗ 2-4
{4}
40 км н/о +18.3 +10.9 62 +19 +19 1015.4 1009.6
09 15.06 З 2-4
{4}
35 км н/о +19.3 +10.6 57 +21 +21 комфорт 1016.0 1010.2 0
10 15.06 ЮЗ 2-5
{5}
35 км н/о +20.3 +8.3 46 +22 +22 комфорт 1016.0 1010.3
11 15.06 ЮЗ 3-5
{5}
30 км н/о +21.1 +7.7 42 +22 +22 комфорт 1016.2 1010.5
12 15.06 ЮЗ 4-6
{6}
25 км н/о +21.3 +7.1 40 +22 +22 комфорт 1016.6 1010.9 0
13 15.06 ЮЗ 3 30 км 9/9 1500 м
[]
+20.5 +7.8 44 +22 +23 комфорт 1016.7 1011.0
14 15.06 ЮЗ 2 35 км 9/9 1500 м
[]
+20.9 +8.8 46 +23 +24 комфорт 1016.6 1010.9
15 15.06 ЮЗ 2
{9}
40 км 9/9 1500 м
[]
+21.0 +8.6 45 +23 +24 комфорт 1016.5 1010.8 0
16 15.06 ЮЗ 3 45 км 10/10 1500 м
[]
+21.7 +9.9 47 +23 +23 комфорт 1016.7 1011.0
17 15.06 ЮЗ 3 30 км 8/8 1500 м
[]
+20.3 +9.2 49 +22 +23 комфорт 1016.9 1011.1
18 15.06 ЮЗ 3
{9}
35 км 9/9 1500 м
[]
+20.6 +9.2 48 +22 +22 комфорт 1017.0 1011.3 +15.1 +21.9 0
19 15.06 ЮЗ 3 30 км 8/8 1500 м
[]
+19.7 +8.4 48 +21 +21 комфорт 1017.3 1011.5
20 15.06 ЮЗ 3 35 км н/о +18.3 +8.8 54 +19 +19 1017.9 1012.1
21 15.06 ЮЗ 2-3
{4}
50 км н/о +17.1 +8.8 58 +18 +18 1018.6 1012.8 0
22 15.06 ЮЗ 3-5
{5}
45 км 10/10 2000 м
[]
+17.5 +9.4 59 +18 +18 1018.9 1013.1
23 15.06 ЮЗ 3-5
{6}
35 км н/о +16.3 +9.9 66 +16 +16 1019.2 1013.4
00 16.06 ЮЗ 2-4
{5}
40 км н/о +15.4 +10.2 71 +15 +15 1019.4 1013.5 0
01 16.06 Ю 2-3
{6}
45 км н/о +15.0 +10.6 75 +15 +15 1019.6 1013.7
02 16.06 ЮЗ 3 35 км 9/3 660 м
[]
+14.6 +11.0 79 +14 +14 1019.7 1013.8
03 16.06 Ю 3
{9}
35 км 10/10 600 м
[]
+14.8 +11.0 78 +14 +14 1020.1 1014.2 0
04 16.06 Ю 2 30 км 10/9 1380 м
[]
+14.9 +11.3 79 +15 +15 1020.3 1014.4
05 16.06 ЮЗ 2 30 км 9/6 600 м
[]
+15.3 +11.5 78 +15 +16 1020.7 1014.8
06 16.06 ЮЗ 2
{7}
35 км 9/9 600 м
[]
+16.0 +11.8 76 +16 +16 1021.2 1015.3 +14.5 +20.6 0
07 16.06 ЮЗ 2 22 км 9/9 600 м
[]
+16.5 +11.6 73 +17 +17 1021.5 1015.7
08 16.06 Ю 2 22 км 9/9 720 м
[]
+17.8 +12.0 69 +18 +19 1021.7 1015.9
09 16.06 Ю 2
{6}
45 км 9/9 600 м
[]
+18.5 +11.3 63 +20 +21 1021.6 1015.8 0
10 16.06 ЮЗ 2 30 км 10/9 1000 м
[]
+19.2 +11.0 59 +21 +22 комфорт 1021.6 1015.8
11 16.06 Ю 5
{8}
35 км 10/10 1000 м
[]
+18.5 +11.6 64 +19 +19 1021.8 1016.0 0.0
12 16.06 ЮЗ 2
{9}
25 км 9/9 1000 м
[]
+20.3 +11.5 57 +23 +28 комфорт 1021.6 1015.8 0.0 0
13 16.06 Ю 2 35 км 9/9 1260 м
[]
+20.8 +11.4 55 +23 +25 комфорт 1021.4 1015.6
14 16.06 ЮЗ 2 45 км 9/6 1380 м
[]
+21.2 +11.2 53 +23 +27 комфорт 1021.3 1015.5
15 16.06 ЮЗ 2
{8}
35 км н/о +22.1 +10.9 49 +24 +24 комфорт 1020.8 1015.1 0
16 16.06 З 2-4
{4}
35 км н/о +22.7 +10.5 46 +25 +25 комфорт 1020.6 1014.9
17 16.06 З 2-4
{4}
35 км н/о +22.7 +10.2 45 +25 +25 комфорт 1020.6 1014.9
18 16.06 ЮЗ 2
{7}
35 км 10/10 1500 м
[]
+22.5 +10.6 47 +24 +24 комфорт 1020.5 1014.8 +15.9 +23.1 0
19 16.06 З 2-3
{4}
50 км н/о +21.2 +10.1 49 +23 +23 комфорт 1020.6 1014.8
20 16.06 ЮЗ 1-2
{3}
55 км н/о +19.3 +10.6 57 +21 +21 комфорт 1020.7 1014.9
21 16.06 ЮЗ 1-1
{2}
50 км н/о +18.5 +10.3 59 +20 +20 1021.0 1015.2 0
22 16.06 С 1-1
{1}
30 км н/о +16.8 +11.1 69 +18 +18 1021.0 1015.2
23 16.06 С 1-1
{1}
28 км н/о +15.4 +11.4 77 +16 +16 1021.1 1015.2
00 17.06 С 1-1
{1}
29 км н/о +14.4 +11.4 82 +15 +15 1020.9 1015.0 0
01 17.06 С 1-1
{2}
26 км н/о +13.6 +11.1 85 +15 +15 1020.8 1014.9
02 17.06 С 1-1
{1}
19 км н/о +13.0 +10.7 86 +13 +13 1020.5 1014.6
03 17.06 СВ 1-1
{1}
1700 м дымка н/о +12.5 +10.6 88 +12 +12 1020.2 1014.3 0
04 17.06 СВ 1-1
{2}
19 км н/о +12.4 +10.8 90 +12 +12 1020.3 1014.4
05 17.06 С 1-1
{1}
13 км н/о +13.3 +11.2 87 +14 +14 1020.6 1014.7
06 17.06 С 1
{2}
22 км н/о +16.3 +12.1 76 +18 +18 1020.6 1014.8 +12.2 +22.5 0
07 17.06 В 1-1
{1}
30 км н/о +18.7 +12.2 66 +21 +21 комфорт 1020.6 1014.8
08 17.06 В 1-2
{2}
19 км н/о +21.4 +12.0 55 +24 +24 комфорт 1020.2 1014.5
09 17.06 ЮВ 1-2
{2}
35 км н/о +22.7 +12.0 51 +25 +25 комфорт 1019.8 1014.1 0
10 17.06 З 1-1
{3}
40 км 9/9 1470 м
[]
+23.1 +11.5 48 +25 +27 комфорт 1019.4 1013.7
11 17.06 Ю 1-3
{3}
50 км н/о +23.6 +11.3 46 +25 +25 комфорт 1018.9 1013.2
12 17.06 С 1
{6}
45 км н/о +24.9 +10.7 41 +26 +26 жарко 1018.5 1012.8 0
13 17.06 ЮВ 2-4
{4}
40 км н/о +25.4 +10.8 40 +26 +26 жарко 1018.0 1012.3
14 17.06 В 2-3
{5}
35 км 9/9 1500 м
[]
+26.1 +12.2 42 +28 +29 жарко 1017.5 1011.9
15 17.06 В 1
{6}
35 км н/о +27.3 +12.9 41 +29 +29 жарко 1016.8 1011.2 0
16 17.06 В 3
{6}
50 км 9/9 2000 м
[]
+25.4 +12.3 44 +27 +31 жарко 1016.5 1010.9
17 17.06 В 3 45 км 9/9 2000 м
[]
+24.8 +12.4 46 +27 +27 жарко 1016.3 1010.6
18 17.06 В 3
{8}
45 км 9/0 2000 м
[]
+24.7 +12.6 47 +27 +27 жарко 1016.1 1010.4 +16.2 +27.3 0
19 17.06 В 2 55 км 8/8 2000 м
[]
+24.0 +12.9 50 +26 +26 жарко 1016.1 1010.4
20 17.06 ЮВ 1-2
{3}
27 км н/о +22.1 +12.6 55 +25 +25 комфорт 1016.1 1010.4
21 17.06 С 1-2
{2}
40 км н/о +20.6 +13.5 64 +24 +24 комфорт 1016.4 1010.7 0
22 17.06 СВ 1-1
{2}
35 км н/о +19.3 +13.7 70 +22 +22 комфорт 1016.6 1010.8
23 17.06 СВ 1-1
{1}
40 км н/о +18.2 +13.9 76 +20 +20 1016.5 1010.7
00 18.06 С 1-1
{1}
40 км н/о +17.3 +13.6 79 +18 +18 1016.1 1010.3 0
01 18.06 С 1-2
{2}
40 км н/о +16.5 +13.2 81 +17 +17 1015.7 1009.9
02 18.06 С 1-2
{2}
28 км н/о +15.8 +13.6 87 +16 +16 1015.5 1009.7
03 18.06 С 2-3
{3}
16 км н/о +14.8 +12.5 86 +15 +15 1015.6 1009.8 0
04 18.06 С 1-2
{3}
20 км н/о +14.4 +11.5 83 +15 +15 1015.3 1009.4
05 18.06 С 1 14 км 10/10
[]
+14.4 +11.9 85 +15 +15 1015.1 1009.2
06 18.06 С 1
{4}
16 км 9/0
[]
+16.0 +12.9 82 +17 +17 1014.8 1009.0 +14.3 +24.8 0
07 18.06 С 1-2
{2}
19 км н/о +17.9 +14.2 79 +19 +19 1014.9 1009.1
08 18.06 СВ 1 23 км 8/8
[]
+20.5 +14.6 69 +24 +26 комфорт 1014.4 1008.7
09 18.06 СВ 1
{5}
20 км 9/0
[]
+22.9 +14.7 60 +27 +28 душно 1014.0 1008.3 0
10 18.06 В 1-2
{2}
19 км н/о +24.7 +15.1 55 +28 +28 душно 1013.4 1007.8
11 18.06 ЮВ 2-3
{4}
16 км н/о +26.2 +14.6 49 +29 +29 жарко 1012.8 1007.2
12 18.06 ЮВ 3
{10}
16 км 10/0
[]
+28.0 +13.5 41 +30 +30 жарко 1012.1 1006.5 0
13 18.06 В 3 35 км 9/1 800 м
[]
+26.6 +12.3 41 +28 +35 жарко 1011.1 1005.5
14 18.06 ЮВ 4 30 км 9/9
[]
+27.7 +13.6 42 +30 +31 жарко 1010.7 1005.1
15 18.06 В 4
{10}
19 км 10/0
[]
+28.0 +13.1 40 +30 +30 жарко 1010.4 1004.8 0
16 18.06 ЮВ 4-5
{5}
20 км н/о +28.1 +14.0 42 +30 +30 жарко 1010.1 1004.5
17 18.06 В 3-5
{5}
21 км н/о +27.2 +14.2 45 +29 +29 жарко 1009.8 1004.2
18 18.06 ЮВ 3
{9}
28 км н/о +27.4 +16.1 50 +31 +31 душно 1009.4 1003.8 +16.0 +28.4 0
19 18.06 В 3-3
{5}
40 км н/о +26.0 +16.3 55 +29 +29 душно 1009.1 1003.5
20 18.06 В 2-3
{4}
45 км н/о +23.6 +16.1 63 +27 +27 жарко 1008.8 1003.2
21 18.06 В 1-2
{3}
45 км н/о +22.2 +16.2 69 +26 +26 душно 1008.8 1003.1 0
22 18.06 СВ 1-2
{2}
30 км н/о +21.0 +16.0 73 +26 +26 душно 1008.6 1002.9
23 18.06 СВ 1-2
{2}
35 км 10/10
[]
+20.5 +15.9 75 +25 +25 комфорт 1007.9 1002.2
00 19.06 СВ 2-2
{2}
50 км н/о +19.3 +15.6 79 +22 +22 комфорт 1006.6 1000.9 0
01 19.06 С 1-1
{2}
35 км н/о +18.8 +15.3 80 +21 +21 комфорт 1006.6 1000.9
02 19.06 СВ 1-1
{1}
30 км н/о +18.0 +15.1 83 +20 +20 1007.2 1001.5
03 19.06 штиль 0
{2}
27 км 10/0
[]
+17.9 +15.3 85 +18 +18 1007.1 1001.4 0
05 19.06 ЮЗ 1 30 км 10/10
[]
+21.1 +14.7 67 +24 +24 комфорт 1007.1 1001.4
06 19.06 Ю 2
{10}
40 км 10/0 2000 м
[]
+21.9 +13.8 60 +25 +25 комфорт 1007.7 1002.0 +17.6 +27.3 0
07 19.06 В 1 19 км 10/10 1500 м
[]
+21.9 +14.3 62 +25 +25 комфорт 1007.4 1001.7 0.0
08 19.06 З 3 35 км н/о +24.2 +14.6 55 +27 +27 жарко 1007.5 1001.9

 

Местоположение метеостанции Ле-Бурже (Франция): широта 48.97 долгота 2.43 высота над уровнем моря 52 м.

В архиве по умолчанию представлена погода в Ле-Бурже за последнюю неделю. Архивные данные за месяц целиком и за предыдущие месяцы, начиная с января 2011 года, Вы можете получить, выбрав интересующий диапазон дат из раскрывающегося списка и нажав кнопку "Ввод!".


*Определитесь, кто Вы:
робот инопланетянин человек

Внимание! Время в таблицах - всемирное. Для получения местного времени необходимо прибавить поправку, которая равна 1 ч.

Смотрите также архив погоды в соседних городах и на ближайших метеорологических станциях:

Погода в Аэропорту Шарль де Голль (Франция) (9 км)
Погода в Париже (Франция) (18 км)
Погода в Велизи-Вилакубле (Франция) (28 км)
Погода в Париж Орли аэропорту (Франция) (28 км)
Погода в Кормее (Франция) (32 км)
Погода в Крее (Франция) (32 км)
Погода в Трапе (Франция) (39 км)
Погода в Мелене (Франция) (43 км)
Погода в Бове (Франция) (60 км)
Погода в Эврё (Франция) (88 км)

Пояснения к столбцам:

Ветер - указаны скорость ветра в м/с - средняя за 10 мин, порывы в срок и между сроками (в фигурных скобках) и направление, откуда дует ветер: С - северный, СВ - северо-восточный, В - восточный, ЮВ - юго-восточный, Ю - южный, ЮЗ - юго-западный, З - западный, СЗ - северо-западный.
Видимость - горизонтальная дальность видимости в метрах или километрах. При видимости от 1 до 10 км при отсутствии осадков обычно наблюдается дымка, при ухудшении видимости до 1 км и менее - туман. В сухую погоду видимость может ухудшаться дымом, пылью или мглою.
Явления - указаны атмосферные явления, наблюдавшиеся в срок или в последний час перед сроком; фигурными скобками обозначены явления, наблюдавшиеся между сроками (за 1-3 часа до срока); квадратными скобками обозначены град или гололедные отложения с указанием их диаметра в мм.
Облачность - указаны через наклонную черту общая и нижняя облачность в баллах и высота нижней границы облаков в метрах; квадратными скобками обозначены формы облаков: Ci - перистые, Cs - перисто-слоистые, Cc - перисто-кучевые, Ac - высококучевые, As - высокослоистые, Sc - слоисто-кучевые, Ns - слоисто-дождевые, Cu - кучевые, Cb - кучево-дождевые. Подробнее классификацию облаков см. в Атласе облаков (PDF).
T - Температура воздуха - температура, измеренная на высоте 2 м над землей.
Td - Температура точки росы - температура, при понижении до которой содержащийся в воздухе водяной пар достигнет насыщения.
f - Относительная влажность воздуха - влажноcть воздуха, измеренная на высоте 2 м над землей.
Te - Эффективная температура - температура, которую ощущает одетый по сезону человек в тени. Характеристика душности погоды. При расчете учитывается влияние влажности воздуха и скорости ветра на теплоощущения человека.
Tes - Эффективная температура на солнце - температура, которую ощущает человек, с поправкой на солнечный нагрев. Характеристика знойности погоды. Зависит от высоты солнца над горизонтом, облачности и скорости ветра. Ночью, в пасмурную погоду, а также при ветре 12 м/с и более поправка равна нулю.
P - Атмосферное давление - приведенное к уровню моря атмосферное давление.
Po - Атмосферное давление - измеренное на уровне метеостанции атмосферное давление.
Tmin - Минимальная температура - минимум температуры воздуха на высоте 2 м над землей.
Tmax - Максимальная температура - максимум температуры воздуха на высоте 2 м над землей.
R - Количество осадков - Количество выпавших осадков за период времени, мм. При наведении курсора мыши на число - период времени, за который выпало указанное количество осадков.
R24 - Количество осадков - Количество выпавших осадков за 24 часа, мм.
S - Снежный покров - Высота снежного покрова, см. При наведении курсора мыши на число - состояние снежного покрова и степень покрытия местности в баллах.